Погода в Ханской

Россия / Республика Адыгея     44°40′28″N   39°57′39″E
темп.,
°C
ветер,
м/с
пор.,
м/с
влажн.,
%
обл.,
%
осадки,
мм/ч
давл.,
гПа
погр.,
м
1 марта, пн
пн100:000зюз239572 0.1 102266
03:00+1зюз359572 0.1 1023236
06:000юз349578 0.0 1024103
09:00+1зюз349264 0.0 1025250
12:00+5зсз347657 0.1 1025780
15:00+6сз336778 0.1 1025955
18:00+3с128399 0.0 102622
21:00+3зсз229599 0.1 1027100
2 марта, вт
вт200:00+3юз119598 0.1 102830
03:00+1зсз119892 0.1 102927
06:00+2всв009693 0.1 102923
09:00+3сз119194 0.1 1029197
12:00+5зсз347988 0.0 1027637
15:00+6зсз478093 0.1 1026905
18:00+4зсз5128453 0.1 1025516
21:00+3з7158627 0.1 1025665
3 марта, ср
ср300:00+3з8168295 0.0 1024884
03:00+3зюз10187968 0.0 10221032
06:00+3зюз1018760 0.0 10201127
09:00+4юз12198340 0.1 10201456
12:00+5зюз121875100 0.8 10201515
15:00+2з5997100 7.3 1020508
18:00+3з6108995 0.4 1022572
21:00+1зсз368585 0.5 1025161
4 марта, чт
чт400:00+1ссз138696 0.0 1026114
03:00−1юз118569 0.1 102721
06:00−1юз11850 0.0 102721
09:00+1ю12740 0.0 1027245
12:00+5ю01550 0.0 1025583
15:00+6з23540 0.0 1024920
18:00+4сз11733 0.0 102222
21:00+2з11862 0.0 102323
5 марта, пт
пт500:00+1ю01930 0.0 102222
03:00+1ююв22900 0.0 102122
06:000ю11850 0.0 102121
09:00+4ю12700 0.0 1021176
12:00+8юз13580 0.0 1020819
15:00+11зюз13540 0.0 10191077
18:00+7ссв01700 0.0 101928
21:00+4ю22790 0.0 102023